This is the latest recevied weather packets stored in our database for station/object K7PMV-13. If no packets are shown the sender has not sent any weather packets the latest 10 day(s).
| Time | Temp. | Humidity | Pressure | Rain* | Wind** | Luminosity | Snow |
|---|---|---|---|---|---|---|---|
| 1777423087 | 28.89° C | 18% | 1009.4 hPa | 0 mm | - | 135 W/m² | - |
| 1777422785 | 28.89° C | 18% | 1009.5 hPa | 0 mm | - | 218 W/m² | - |
| 1777422481 | 28.89° C | 18% | 1009.5 hPa | 0 mm | - | 260 W/m² | - |
| 1777422178 | 28.89° C | 19% | 1009.5 hPa | 0 mm | - | 227 W/m² | - |
| 1777421874 | 28.89° C | 17% | 1009.5 hPa | 0 mm | - | 264 W/m² | - |
| 1777421572 | 29.44° C | 17% | 1009.6 hPa | 0 mm | - | 294 W/m² | - |
| 1777421266 | - | - | - | - | - | - | - |
| 1777420781 | 29.44° C | 16% | 1009.6 hPa | 0 mm | - | 369 W/m² | - |
| 1777420479 | 30° C | 17% | 1009.7 hPa | 0 mm | - | 403 W/m² | - |
| 1777420176 | 29.44° C | 16% | 1009.6 hPa | 0 mm | - | 424 W/m² | - |
| 1777419873 | 29.44° C | 17% | 1009.6 hPa | 0 mm | - | 446 W/m² | - |
| 1777419571 | 29.44° C | 16% | 1009.6 hPa | 0 mm | - | 464 W/m² | - |
| 1777419267 | 29.44° C | 16% | 1009.7 hPa | 0 mm | - | 485 W/m² | - |
| 1777418958 | 29.44° C | 17% | 1009.7 hPa | 0 mm | - | 501 W/m² | - |
| 1777418655 | 30° C | 17% | 1009.7 hPa | 0 mm | - | 497 W/m² | - |
| 1777418353 | 30° C | 16% | 1009.7 hPa | 0 mm | - | 494 W/m² | - |
| 1777418050 | 30° C | 16% | 1009.9 hPa | 0 mm | - | 413 W/m² | - |
| 1777417744 | 29.44° C | 16% | 1009.9 hPa | 0 mm | - | 526 W/m² | - |
| 1777417441 | 29.44° C | 17% | 1009.7 hPa | 0 mm | - | 571 W/m² | - |
| 1777417138 | 29.44° C | 16% | 1009.8 hPa | 0 mm | - | 601 W/m² | - |
| 1777416830 | 30° C | 18% | 1009.9 hPa | 0 mm | - | 608 W/m² | - |
| 1777416528 | 29.44° C | 17% | 1010 hPa | 0 mm | - | 617 W/m² | - |
| 1777416225 | 29.44° C | 17% | 1010.1 hPa | 0 mm | - | 638 W/m² | - |
| 1777415923 | 29.44° C | 18% | 1010.2 hPa | 0 mm | - | 642 W/m² | - |
| 1777415620 | 29.44° C | 18% | 1010.3 hPa | 0 mm | - | 650 W/m² | - |
* Rain latest hour (hover to see other rain measurements)
** Current wind speed in m/s (hover to see current wind gust speed)